Location: Stara Lesna
(49.1528°N, 20.2911°E)
Time: 23:33:47
(UTC+02:00)

Meteor 1-11 Rocket - Pass Details

Date: 21 September 2019
Orbit: 831 x 916 km, 81.2° (Epoch: 16 October)

Event Time Altitude Azimuth Distance (km) Brightness Sun altitude
Rises 04:34:08 0° 346° (NNW) 3,439 7.0 -18.1°
Reaches altitude 10° 04:36:35 10° 344° (NNW) 2,487 6.2 -17.7°
Maximum altitude 04:42:10 70° 263° (W) 896 3.6 -16.9°
Drops below altitude 10° 04:47:38 10° 180° (S) 2,435 5.9 -16.1°
Sets 04:50:02 0° 178° (S) 3,362 6.6 -15.7°
